Location: Kampong Batu Enam
(2.8167°N, 101.4833°E)
Time: 09:08:05
(UTC+00:00)

Daily predictions for brighter satellites

Satellite Brightness Start Highest point End
(mag) Time Altitude Azimuth Time Altitude Azimuth Time Altitude Azimuth
SEDSat Delta rocket 4.4 12:01:39 10° W 12:06:20 39° SSW 12:11:18 11° SE
Cosmos 372 Rocket 4.0 12:01:21 10° N 12:06:20 61° ENE 12:11:23 10° SSE
Cosmos 1634 Rocket 4.2 12:01:25 10° SSE 12:07:19 47° E 12:13:15 10° NNE
Cosmos 2034 Rocket 4.3 12:03:38 10° S 12:09:57 75° W 12:16:13 10° N
YAOGAN 1 2.6 12:06:13 10° S 12:10:28 82° WSW 12:14:42 10° NNW
Resurs 01 Rocket 1.9 12:08:13 10° SSE 12:12:26 47° ENE 12:16:38 10° N
Cosmos 1937 Rocket 4.2 12:12:00 10° NNE 12:16:35 33° ENE 12:19:23 20° SE
Cosmos 1844 Rocket 3.5 12:20:01 10° SSE 12:24:40 27° ESE 12:29:17 10° NE
Ariane H10+ 1.8 12:18:13 10° W 12:25:27 87° S 12:27:50 27° E
Cosmos 1825 Rocket 3.8 12:21:29 10° N 12:25:52 72° W 12:30:14 10° S
Cosmos 2221 2.4 12:24:43 10° S 12:28:51 58° E 12:32:59 10° NNE
Cosmos 1428 Rocket 4.4 12:22:59 10° N 12:29:00 66° E 12:35:05 10° SSE
USA 267 3.5 12:25:30 12° SSE 12:31:34 65° SW 12:38:01 10° NW
Cosmos 489 Rocket 4.4 12:26:45 10° S 12:33:01 64° ESE 12:39:15 10° NNE
COSMOS 2428 2.8 12:28:28 10° NNW 12:34:07 79° WSW 12:39:08 13° S
ARIANE 3 DEB 2.6 12:32:44 10° W 12:36:35 72° N 12:37:56 37° ENE
Atlas Centaur 2 3.1 12:36:34 10° NNW 12:39:05 16° NNE 12:39:53 15° NE
Ariane H10-3 3.3 12:39:03 10° WSW 12:41:39 46° S 12:42:34 38° SE
SJ-6B 2.7 12:43:50 48° NE 12:43:50 48° NE 12:46:46 10° N
Cosmos 1844 4.0 12:39:12 10° S 12:44:31 41° ESE 12:49:51 10° NE
SAR-Lupe-1 3.8 12:46:28 71° ESE 12:46:41 75° ENE 12:50:10 10° N
OAO 1 Rocket 4.3 12:43:35 10° NW 12:48:54 89° NE 12:50:32 46° SE
SL-24 R/B - RUBIN 2 4.2 12:44:35 10° SSW 12:49:56 69° WNW 12:54:43 10° NNE
Cosmos 1953 Rocket 3.8 12:46:58 10° NNW 12:51:14 65° W 12:53:52 23° S
NOAA 6 4.3 12:49:03 16° S 12:53:10 64° WSW 12:58:14 10° NNW
Spot 4 Rocket 4.2 12:50:43 20° S 12:54:13 72° WSW 12:59:18 10° NNW
Cosmos 1766 3.5 12:52:54 10° NNW 12:55:55 47° W 12:56:02 46° WSW
ARIANE 5 R/B 4.2 12:57:19 10° WSW 12:57:35 12° WSW 12:57:35 12° WSW
NOSS 0 Rocket 4.1 12:54:04 10° NNW 13:00:08 68° WSW 13:03:39 27° S
Cosmos 2237 Rocket 2.1 12:56:03 10° N 13:01:35 64° ENE 13:02:22 57° ESE
Cosmos 1627 Rocket 4.3 12:55:29 10° N 13:01:40 73° E 13:03:58 40° SSE
Milstar 3 3.6 12:55:47 10° W 13:02:06 36° SSW 13:04:32 28° S
ARIANE 5 DEB (SYLDA) 2.4 13:02:48 10° W 13:05:48 77° N 13:05:48 77° N
Cosmos 2279 Rocket 4.3 13:02:08 10° SSW 13:08:19 65° W 13:14:30 10° N
Cosmos 1980 3.5 13:02:41 10° NNW 13:08:21 85° ENE 13:09:24 61° SSE
SL-19 R/B 4.4 13:07:27 41° SSE 13:09:51 90° SE 13:16:09 10° NNW
Ariane H10 4.3 13:06:41 10° WSW 13:10:52 75° SSE 13:15:49 36° E
Cosmos 1092 Rocket 4.1 13:19:34 10° N 13:25:52 74° W 13:27:32 51° SSW
Meteor 1-27 Rocket 4.0 13:29:41 50° SW 13:30:57 64° W 13:36:30 10° N
CSL-04 Rocket 4.1 13:35:49 58° NNW 13:35:49 58° NNW 13:40:03 10° NNW
SPOT 5 4.0 13:40:03 38° WNW 13:40:03 38° WNW 13:43:20 10° NNW
Terra 4.4 13:43:56 12° N 13:43:56 12° N 13:44:15 10° N
Mugunghwa Rocket 4.4 13:36:18 10° WSW 13:42:10 59° SW 13:42:10 59° SW
ARIANE 44L R/B 4.0 13:36:54 10° W 13:43:42 42° WNW 13:43:42 42° WNW
BLOCK DM-SL R/B 4.4 14:00:53 10° W 14:34:37 - E 14:05:50 73° SW
ATLAS CENTAUR Rocket 3.9 14:15:53 10° W 15:01:06 - ESE 14:19:12 43° WSW
ATLAS CENTAUR Rocket 3.9 14:15:53 10° W 15:01:07 - ESE 14:19:12 43° WSW
ATLAS CENTAUR Rocket 3.9 14:15:52 10° W 15:01:07 - ESE 14:19:12 43° WSW
ATLAS CENTAUR Rocket 3.9 14:15:52 10° W 14:19:11 43° WSW 14:19:11 43° WSW
Chandra Rocket (1) 4.4 14:11:01 10° WNW 14:32:03 63° NNW 14:32:03 63° NNW
ATLAS 3B R/B 3.7 20:05:58 43° NE 20:05:58 43° NE 20:10:55 10° NNE
Milstar 3 Cent rocket 4.2 20:07:15 68° WNW 20:09:49 88° SSW 20:34:40 10° ESE
Cosmos 1980 Rocket 3.0 20:39:30 47° E 20:39:30 47° E 20:44:18 10° NNE
CZ-2C R/B 3.2 20:50:39 10° NNE 20:55:20 47° ESE 20:55:32 46° ESE
SeaSat 1 2.9 20:59:42 22° SE 21:02:45 59° ENE 21:07:32 10° N
ARIANE 5 R/B 4.0 21:04:42 47° WSW 21:07:27 68° S 21:11:31 10° E
GPS 2-15 Rocket1 3.2 21:12:54 74° ENE 21:12:54 74° ENE 21:17:16 10° ENE
CZ-3 R/B 4.1 20:50:26 10° W 21:17:50 32° SW 21:27:07 10° SSE
Cosmos 2173 Rocket 4.4 21:14:15 10° N 21:20:24 63° E 21:26:27 10° SSE
ARIANE 5 R/B 3.4 21:20:02 56° SW 21:21:03 71° S 21:35:43 10° E
Cosmos 2100 Rocket 4.2 21:17:02 10° N 21:23:12 70° E 21:29:19 10° S
Cosmos 1459 Rocket 4.4 21:17:32 10° N 21:23:42 62° E 21:29:56 10° SSE
Palapa 6 Rocket 4.5 21:21:32 41° W 21:24:12 63° NNW 21:31:41 10° ENE
Cosmos 1939 Rocket 3.2 21:22:55 10° NNE 21:26:33 55° ESE 21:27:07 48° SE
ARIANE 5 DEB (SYLDA) 3.5 21:34:58 29° E 21:34:58 29° E 21:37:40 10° E
Intelsat 5-1 Rocket 2.2 21:35:01 40° SSE 21:35:01 40° SSE 21:38:18 10° ESE
H-2A R/B 3.4 21:33:43 10° NNW 21:36:08 25° NW 21:36:08 25° NW
Cosmos 2237 4.2 21:36:46 23° S 21:40:29 80° ESE 21:46:11 10° NNE
Cosmos 540 Rocket 3.7 21:38:25 10° NNW 21:43:10 42° WSW 21:44:36 34° SW
Cosmos 1455 Rocket 3.0 21:39:17 10° NNW 21:43:32 59° W 21:45:18 33° SSW
Cosmos 1802 Rocket 4.4 21:37:35 10° N 21:43:56 68° E 21:50:19 10° S
Meteor 1-27 4.3 21:39:50 10° NNW 21:45:31 61° W 21:51:17 10° S
Cosmos 2228 2.9 21:41:18 10° N 21:45:31 83° E 21:49:44 10° S
ARIANE 5 R/B 2.6 21:46:02 31° SSE 21:46:02 31° SSE 21:48:35 10° ESE
DELTA 2 R/B (1) 4.0 21:49:11 30° W 21:51:30 49° NW 21:56:48 10° NNE
Cosmos 1782 3.4 21:48:55 10° NNW 21:51:18 31° WNW 21:51:18 31° WNW
GPS 2-17 Rocket1 4.2 21:52:35 22° SSW 21:54:08 27° SSE 21:57:52 10° E
BREEZE M DEB (TANK) 1.6 21:55:27 43° SSE 21:55:42 46° SE 21:57:59 10° NE
Cosmos 1536 Rocket 3.4 21:54:33 15° S 21:58:08 75° W 22:02:27 10° N
Ariane H10 4.1 21:15:56 10° W 21:58:28 86° N 22:03:31 10° E
Delta 198 4.2 21:56:01 25° SW 21:59:16 60° SSE 22:04:16 10° ENE
OAO 2 Rocket 3.6 21:58:45 21° W 22:01:35 43° SW 22:06:14 10° SE
ASC 2 Rocket 3.9 21:56:48 10° NW 22:02:01 52° NNE 22:06:05 10° E
Cosmos 1437 Rocket 2.2 21:59:20 10° NNW 22:02:42 68° W 22:06:04 10° S
Delta 168 3.9 22:00:23 24° WSW 22:03:47 85° SSE 22:11:38 10° ENE
NOAA 12 4.0 22:00:35 10° N 22:05:51 79° WNW 22:11:10 10° SSW
Spelda 30 2.3 22:07:04 19° W 22:09:48 86° N 22:12:13 10° E
BLOCK-DM UPPERSTAGE 3.8 22:05:02 16° W 22:11:16 65° S 22:15:08 10° E
SL-16 R/B 2.7 22:09:55 10° S 22:15:57 52° WSW 22:21:57 10° NNW
FALCON 9 R/B 2.2 22:15:16 14° WNW 22:16:13 18° NNW 22:18:05 10° NNE
ARIANE 5 DEB (SYLDA) 3.6 22:16:17 16° SW 22:19:04 30° S 22:21:42 10° ESE
Ariane H10+ 3.2 22:16:12 16° SW 22:20:24 43° SSE 22:28:58 10° E
Cosmos 1980 Rocket 4.1 22:21:17 10° W 22:22:37 11° WNW 22:24:07 10° WNW
ISS -3.5 22:21:13 16° SW 22:23:44 52° NW 22:27:01 10° NNE
Cosmos 2061 Rocket 4.3 22:18:19 10° N 22:24:39 76° E 22:30:54 10° S
ARIANE 3 DEB 2.4 22:23:33 18° WSW 22:24:49 30° S 22:26:55 10° ESE
ISO 3.2 22:22:15 14° WSW 22:25:29 71° S 22:43:28 10° E
Cosmos 2233 Rocket 4.0 22:22:02 10° N 22:28:18 78° W 22:34:36 10° S
Cosmos 2297 Rocket 2.2 22:23:55 10° NNW 22:29:31 68° WSW 22:35:07 10° S
CZ-4 R/B 4.2 22:27:16 10° NNE 22:32:10 70° ESE 22:37:01 10° S
BLOCK DM-SL R/B 3.6 22:29:13 11° WSW 22:32:33 70° S 22:48:37 10° E
ARIANE 5 DEB (SYLDA) 2.1 22:29:42 12° W 22:33:00 82° N 22:36:43 10° E
Cosmos 1892 Rocket 3.6 22:30:16 10° S 22:34:36 85° E 22:38:54 10° N
Cosmos 2333 Rocket 2.2 22:30:06 10° SSW 22:35:45 83° WNW 22:41:23 10° NNE
Cosmos 1933 3.1 22:33:13 10° N 22:36:58 67° W 22:40:43 10° S
NOSS 3-4 (A) 3.4 22:33:54 10° SSW 22:39:27 68° ESE 22:44:37 10° NNE
NOSS 3-4 (C) 3.5 22:34:36 10° SSW 22:40:10 67° ESE 22:45:21 10° NNE
BREEZE-M DEB 2.9 22:40:20 10° WSW 22:42:12 30° NW 22:44:57 10° NNE
Cosmos 2219 Rocket 4.3 22:38:07 10° SSE 22:42:47 27° ESE 22:47:27 10° NE
Meteor 1-28 Rocket 3.1 22:39:51 10° S 22:42:56 43° W 22:46:00 10° NNW
SL-16 R/B 2.4 22:38:44 10° SSW 22:44:16 57° WNW 22:49:48 10° N
MOS 1 Rocket 3.7 22:42:02 10° N 22:46:34 48° W 22:51:22 10° SSW
Delta 7925 Rocket 4.5 22:41:58 10° W 22:47:09 46° NNW 22:53:42 10° NE
CENTAUR R/B 4.4 22:42:47 10° N 22:52:02 56° ENE 23:00:53 10° SE
Ariane H10-3 2.5 22:49:31 10° W 23:00:02 77° N 23:02:49 10° E
